GW6386 Weather Reports


time (UTC)temp
C
wind
direction
speed
KPH
gust
KPH
rain 1hr
cm
rain 24hr
cm
rain mn
cm
humidity
%
barometer
mb
20260906182619 37 133 6.4 17.7 0.00 0.00 0.00 40 608.0
20260906182118 37 142 4.8 17.7 0.00 0.00 0.00 40 584.1
20260906181617 37 300 0.0 17.7 0.00 0.00 0.00 41 664.3
20260906181116 37 57 6.4 17.7 0.00 0.00 0.00 41 405.2
20260906180615 37 100 4.8 17.7 0.00 0.00 0.00 41 443.1
20260906175558 36 107 3.2 17.7 0.00 0.00 0.00 42 509.6
20260906175057 36 152 6.4 17.7 0.00 0.00 0.00 41 514.2
20260906174556 36 121 3.2 17.7 0.00 0.00 0.00 43 506.5
20260906173539 36 136 3.2 17.7 0.00 0.00 0.00 42 515.9
20260906173038 36 121 3.2 17.7 0.00 0.00 0.00 44 513.1
20260906172538 36 141 4.8 17.7 0.00 0.00 0.00 43 512.3
20260906172038 36 137 6.4 17.7 0.00 0.00 0.00 42 480.4
20260906171537 36 79 3.2 17.7 0.00 0.00 0.00 43 440.5
20260906171036 36 129 3.2 17.7 0.00 0.00 0.00 44 498.0
20260906170020 36 82 1.6 17.7 0.00 0.00 0.00 43 514.9
20260906165519 36 191 1.6 17.7 0.00 0.00 0.00 44 546.9
20260906165018 36 54 3.2 17.7 0.00 0.00 0.00 45 442.4
20260906164517 36 122 6.4 17.7 0.00 0.00 0.00 44 518.7
20260906164016 36 95 1.6 17.7 0.00 0.00 0.00 47 524.6
20260906163515 36 166 1.6 17.7 0.00 0.00 0.00 47 600.8
20260906163014 35 120 4.8 17.7 0.00 0.00 0.00 47 478.6
20260906162514 35 77 1.6 17.7 0.00 0.00 0.00 47 473.6
20260906162013 35 124 4.8 17.7 0.00 0.00 0.00 47 485.9
20260906160956 35 120 3.2 17.7 0.00 0.00 0.00 49 436.2
20260906160456 35 57 1.6 17.7 0.00 0.00 0.00 49 370.5
20260906155955 35 22 1.6 17.7 0.00 0.00 0.00 50 387.5
20260906155454 34 132 1.6 17.7 0.00 0.00 0.00 51 443.5
20260906154438 33 43 4.8 17.7 0.00 0.00 0.00 53 428.6
20260906151843 32 109 6.4 17.7 0.00 0.00 0.00 54 471.2
20260906150826 32 156 4.8 17.7 0.00 0.00 0.00 54 524.7
20260906150325 32 115 4.8 17.7 0.00 0.00 0.00 54 473.1
20260906145824 32 98 4.8 17.7 0.00 0.00 0.00 55 458.8
20260906145323 32 110 4.8 17.7 0.00 0.00 0.00 56 489.2
20260906144306 32 149 3.2 17.7 0.00 0.00 0.00 56 513.0
20260906143805 32 124 4.8 17.7 0.00 0.00 0.00 56 447.7
20260906143304 31 99 3.2 17.7 0.00 0.00 0.00 57 407.3
20260906142804 31 66 4.8 17.7 0.00 0.00 0.00 58 394.9
20260906142306 31 66 3.2 17.7 0.00 0.00 0.00 59 375.8
20260906141802 31 97 3.2 17.7 0.00 0.00 0.00 60 371.6
20260906141302 31 64 1.6 17.7 0.00 0.00 0.00 62 346.6
20260906135729 30 64 1.6 17.7 0.00 0.00 0.00 65 307.1
20260906135228 30 43 1.6 17.7 0.00 0.00 0.00 66 292.1
20260906134726 29 49 3.2 17.7 0.00 0.00 0.00 68 288.0
20260906134225 28 33 3.2 17.7 0.00 0.00 0.00 69 273.1
20260906133724 28 71 3.2 17.7 0.00 0.00 0.00 70 294.6
20260906133223 28 37 1.6 17.7 0.00 0.00 0.00 71 266.3
20260906132723 27 30 1.6 17.7 0.00 0.00 0.00 72 266.6
20260906132222 27 47 1.6 17.7 0.00 0.00 0.00 73 288.2
20260906131205 26 29 1.6 17.7 0.00 0.00 0.00 76 256.1
20260906130704 26 36 1.6 17.7 0.00 0.00 0.00 78 263.3
20260906130204 25 36 1.6 17.7 0.00 0.00 0.00 79 263.5
20260906125147 25 27 1.6 17.7 0.00 0.00 0.00 81 253.6
20260906124646 25 31 3.2 17.7 0.00 0.00 0.00 81 268.6
20260906124145 24 36 3.2 17.7 0.00 0.00 0.00 82 289.9
20260906123129 24 49 0.0 17.7 0.00 0.00 0.00 82 300.8
20260906122629 24 49 0.0 17.7 0.00 0.00 0.00 82 300.6
20260906122128 23 49 0.0 17.7 0.00 0.00 0.00 82 300.7
20260906121627 23 49 0.0 17.7 0.00 0.00 0.00 82 300.7
20260906121126 23 49 0.0 17.7 0.00 0.00 0.00 81 300.6
20260906120625 24 49 0.0 17.7 0.00 0.00 0.00 81 300.7
20260906120124 24 49 0.0 17.7 0.00 0.00 0.00 81 300.7
20260906115623 24 49 0.0 17.7 0.00 0.00 0.00 81 300.7
20260906114607 24 49 0.0 17.7 0.00 0.00 0.00 80 300.3
20260906114106 24 49 0.0 17.7 0.00 0.00 0.00 80 300.3
20260906113049 24 49 0.0 17.7 0.00 0.00 0.00 80 300.4
20260906111518 24 49 0.0 17.7 0.00 0.00 0.00 79 300.2
20260906111017 25 49 0.0 17.7 0.00 0.00 0.00 79 300.2
20260906110001 25 49 0.0 17.7 0.00 0.00 0.00 78 299.9
20260906105500 25 49 0.0 17.7 0.00 0.00 0.00 78 300.1
20260906105000 25 49 0.0 17.7 0.00 0.00 0.00 78 300.3
20260906104459 25 49 0.0 17.7 0.00 0.00 0.00 77 300.3
20260906103959 25 49 0.0 17.7 0.00 0.00 0.00 77 300.2
20260906103458 25 49 0.0 17.7 0.00 0.00 0.00 77 300.2
20260906102957 25 49 0.0 17.7 0.00 0.00 0.00 77 300.2
20260906102456 25 49 0.0 17.7 0.00 0.00 0.00 77 300.3
20260906101439 25 49 0.0 17.7 0.00 0.00 0.00 76 300.1
20260906100938 25 49 0.0 17.7 0.00 0.00 0.00 76 300.2
20260906100437 25 49 0.0 17.7 0.00 0.00 0.00 75 300.1
20260906095936 25 49 0.0 17.7 0.00 0.00 0.00 75 300.1
20260906095435 26 49 0.0 17.7 0.00 0.00 0.00 75 300.2
20260906094934 26 49 0.0 17.7 0.00 0.00 0.00 75 300.2
20260906093917 26 49 0.0 17.7 0.00 0.00 0.00 74 300.2
20260906093416 26 49 0.0 17.7 0.00 0.00 0.00 74 300.2
20260906092915 26 49 0.0 17.7 0.00 0.00 0.00 73 300.2
20260906092414 26 49 0.0 17.7 0.00 0.00 0.00 72 300.3
20260906091913 26 49 0.0 17.7 0.00 0.00 0.00 72 300.2
20260906091413 26 49 0.0 17.7 0.00 0.00 0.00 72 300.3
20260906090912 26 49 0.0 17.7 0.00 0.00 0.00 72 300.3
20260906090412 26 49 0.0 17.7 0.00 0.00 0.00 72 300.5
20260906085912 26 49 0.0 17.7 0.00 0.00 0.00 71 300.7
20260906085411 26 49 0.0 17.7 0.00 0.00 0.00 71 300.7
20260906084910 26 49 0.0 17.7 0.00 0.00 0.00 71 300.6
20260906084409 26 49 0.0 17.7 0.00 0.00 0.00 71 300.3
20260906083909 26 49 0.0 17.7 0.00 0.00 0.00 71 300.1
20260906083408 26 49 0.0 17.7 0.00 0.00 0.00 71 300.0
20260906082907 26 49 0.0 17.7 0.00 0.00 0.00 71 300.0
20260906082406 26 49 0.0 17.7 0.00 0.00 0.00 71 299.9
20260906081905 26 49 0.0 17.7 0.00 0.00 0.00 72 299.8
20260906081404 26 49 0.0 17.7 0.00 0.00 0.00 71 299.6
20260906080347 27 49 0.0 17.7 0.00 0.00 0.00 70 299.8
20260906075846 27 49 0.0 17.7 0.00 0.00 0.00 70 299.9
20260906075345 27 49 0.0 17.7 0.00 0.00 0.00 70 299.9
20260906074844 27 49 0.0 17.7 0.00 0.00 0.00 70 299.7
20260906073837 27 49 0.0 17.7 0.00 0.00 0.00 69 299.6
20260906073336 27 49 0.0 17.7 0.00 0.00 0.00 69 299.3
20260906072835 27 49 0.0 17.7 0.00 0.00 0.00 69 299.3
20260906072334 27 49 1.6 17.7 0.00 0.00 0.00 69 299.2
20260906071318 27 49 1.6 17.7 0.00 0.00 0.00 68 299.1
20260906070817 27 49 1.6 17.7 0.00 0.00 0.00 68 298.6
20260906070316 27 49 1.6 17.7 0.00 0.00 0.00 68 297.7
20260906065815 27 49 0.0 17.7 0.00 0.00 0.00 68 295.7
20260906065314 27 49 1.6 17.7 0.00 0.00 0.00 68 291.7
20260906064814 27 49 0.0 17.7 0.00 0.00 0.00 67 283.8
20260906064313 27 47 0.0 17.7 0.00 0.00 0.00 67 266.8
20260906063256 27 34 1.6 17.7 0.00 0.00 0.00 67 256.6
20260906062754 27 34 0.0 17.7 0.00 0.00 0.00 67 256.5
20260906061222 27 34 1.6 17.7 0.00 0.00 0.00 67 255.4
20260906060721 27 34 0.0 17.7 0.00 0.00 0.00 66 255.3
20260906060220 27 34 0.0 17.7 0.00 0.00 0.00 67 255.2
20260906055718 28 34 0.0 17.7 0.00 0.00 0.00 66 254.8
20260906055217 28 34 0.0 17.7 0.00 0.00 0.00 66 253.8
20260906054717 27 34 0.0 17.7 0.00 0.00 0.00 66 251.7
20260906053659 27 30 0.0 17.7 0.00 0.00 0.00 66 247.2
20260906053158 28 30 0.0 17.7 0.00 0.00 0.00 66 250.8
20260906052658 28 34 1.6 17.7 0.00 0.00 0.00 66 258.1
20260906052158 28 35 1.6 17.7 0.00 0.00 0.00 65 259.7
20260906051657 28 34 1.6 17.7 0.00 0.00 0.00 65 262.4
20260906051156 28 37 1.6 17.7 0.00 0.00 0.00 65 266.5
20260906050655 28 38 0.0 17.7 0.00 0.00 0.00 65 267.0
20260906050154 28 38 0.0 17.7 0.00 0.00 0.00 65 266.9
20260906045653 28 38 0.0 17.7 0.00 0.00 0.00 65 266.8
20260906045152 28 38 0.0 17.7 0.00 0.00 0.00 64 266.6
20260906044650 28 38 0.0 17.7 0.00 0.00 0.00 64 266.5
20260906044150 28 38 0.0 17.7 0.00 0.00 0.00 65 266.2
20260906042626 28 38 0.0 17.7 0.00 0.00 0.00 64 265.5
20260906042126 28 38 0.0 17.7 0.00 0.00 0.00 64 265.7
20260906041625 28 38 0.0 17.7 0.00 0.00 0.00 64 265.8
20260906041123 28 38 0.0 17.7 0.00 0.00 0.00 63 265.8
20260906040623 28 38 0.0 17.7 0.00 0.00 0.00 63 265.4
20260906040122 28 38 0.0 17.7 0.00 0.00 0.00 63 264.6
20260906035622 29 38 1.6 17.7 0.00 0.00 0.00 62 264.1
20260906035121 29 38 0.0 17.7 0.00 0.00 0.00 61 262.3
20260906034620 29 38 0.0 17.7 0.00 0.00 0.00 59 256.5
20260906034119 29 31 0.0 17.7 0.00 0.00 0.00 59 246.6
20260906033103 29 31 0.0 17.7 0.00 0.00 0.00 61 246.9
20260906032603 30 31 0.0 17.7 0.00 0.00 0.00 61 247.3
20260906032102 30 31 0.0 17.7 0.00 0.00 0.00 60 247.8
20260906031046 30 31 0.0 17.7 0.00 0.00 0.00 59 251.3
20260906030546 30 31 0.0 17.7 0.00 0.00 0.00 59 255.2
20260906030045 30 31 0.0 17.7 0.00 0.00 0.00 58 262.5
20260906025544 30 31 0.0 17.7 0.00 0.00 0.00 58 276.3
20260906025043 30 31 0.0 17.7 0.00 0.00 0.00 56 303.2
20260906024026 31 48 4.8 17.7 0.00 0.00 0.00 57 471.0
20260906023525 31 126 0.0 17.7 0.00 0.00 0.00 54 529.9
20260906023024 31 126 0.0 17.7 0.00 0.00 0.00 55 529.8
20260906022008 31 126 0.0 17.7 0.00 0.00 0.00 54 530.1
20260906021507 31 126 0.0 17.7 0.00 0.00 0.00 53 529.7
20260906021006 31 126 0.0 17.7 0.00 0.00 0.00 54 529.6
20260906020506 31 126 0.0 17.7 0.00 0.00 0.00 53 529.8
20260906020005 31 126 0.0 17.7 0.00 0.00 0.00 52 529.7
20260906015504 31 126 0.0 17.7 0.00 0.00 0.00 52 529.5
20260906015003 32 126 0.0 17.7 0.00 0.00 0.00 52 529.3
20260906013946 32 126 0.0 17.7 0.00 0.00 0.00 52 528.7
20260906013445 32 126 0.0 17.7 0.00 0.00 0.00 52 528.3
20260906012944 32 126 0.0 17.7 0.00 0.00 0.00 50 528.2
20260906011937 33 126 0.0 17.7 0.00 0.00 0.00 50 527.8
20260906011436 33 126 0.0 17.7 0.00 0.00 0.00 49 527.8
20260906010935 33 126 0.0 17.7 0.00 0.00 0.00 49 527.6
20260906010434 33 126 0.0 17.7 0.00 0.00 0.00 49 527.6
20260906005933 34 126 0.0 17.7 0.00 0.00 0.00 49 527.4
20260906005432 34 126 0.0 17.7 0.00 0.00 0.00 47 527.2
20260906004931 35 126 0.0 17.7 0.00 0.00 0.00 46 527.2
20260906004430 35 126 0.0 17.7 0.00 0.00 0.00 46 527.3
20260906002857 35 126 0.0 17.7 0.00 0.00 0.00 44 527.4
20260906002356 35 126 0.0 17.7 0.00 0.00 0.00 44 527.2
20260906001339 36 126 1.6 17.7 0.00 0.00 0.00 43 527.6
20260906000838 36 126 0.0 17.7 0.00 0.00 0.00 42 528.9
20260906000337 36 126 1.6 17.7 0.00 0.00 0.00 42 531.5
20260905235836 36 126 1.6 17.7 0.00 0.00 0.00 41 537.0
20260905234819 37 136 3.2 17.7 0.00 0.00 0.00 40 569.1
20260905234318 37 143 0.0 17.7 0.00 0.00 0.00 39 585.7
20260905233817 37 147 1.6 17.7 0.00 0.00 0.00 39 597.3
20260905232800 37 153 1.6 17.7 0.00 0.00 0.00 38 607.0
20260905231227 37 159 0.0 17.7 0.00 0.00 0.00 39 579.8
20260905230726 37 145 1.6 17.7 0.00 0.00 0.00 38 531.4
20260905230225 37 90 1.6 17.7 0.00 0.00 0.00 38 500.1
20260905225209 37 164 4.8 17.7 0.00 0.00 0.00 38 591.9
20260905223636 37 205 1.6 17.7 0.00 0.00 0.00 37 780.7
20260905223135 37 215 4.8 17.7 0.00 0.00 0.00 37 778.3
20260905222634 37 245 1.6 17.7 0.00 0.00 0.00 38 779.7
20260905222133 37 235 4.8 17.7 0.00 0.00 0.00 37 702.0
20260905221116 37 208 3.2 17.7 0.00 0.00 0.00 37 613.8
20260905220615 37 132 6.4 17.7 0.00 0.00 0.00 38 529.1
20260905220114 37 85 1.6 17.7 0.00 0.00 0.00 38 570.9
20260905215613 37 188 4.8 17.7 0.00 0.00 0.00 39 670.2
20260905215113 37 148 3.2 17.7 0.00 0.00 0.00 38 672.0
20260905214053 37 179 3.2 17.7 0.00 0.00 0.00 38 636.7
20260905213552 37 129 3.2 17.7 0.00 0.00 0.00 38 572.1
20260905213051 37 149 3.2 17.7 0.00 0.00 0.00 38 587.0
20260905212034 37 121 3.2 17.7 0.00 0.00 0.00 37 578.0
20260905211533 37 171 6.4 17.7 0.00 0.00 0.00 37 590.2
20260905210516 37 146 3.2 17.7 0.00 0.00 0.00 38 592.7
20260905210015 37 136 4.8 17.7 0.00 0.00 0.00 37 586.4
20260905205514 38 137 4.8 17.7 0.00 0.00 0.00 38 548.6
20260905205013 38 137 0.0 17.7 0.00 0.00 0.00 37 553.8
20260905204512 38 176 3.2 17.7 0.00 0.00 0.00 37 552.5
20260905204012 38 117 1.6 17.7 0.00 0.00 0.00 39 689.9
20260905203512 38 234 3.2 17.7 0.00 0.00 0.00 37 696.5
20260905203012 37 157 3.2 17.7 0.00 0.00 0.00 38 668.6
20260905202511 37 154 6.4 17.7 0.00 0.00 0.00 37 648.7
20260905202010 37 213 4.8 17.7 0.00 0.00 0.00 37 629.6
20260905201509 37 129 3.2 17.7 0.00 0.00 0.00 38 615.4
20260905201009 37 170 4.8 17.7 0.00 0.00 0.00 38 636.7
20260905195953 37 147 4.8 17.7 0.00 0.00 0.00 38 625.0
20260905195452 37 134 4.8 17.7 0.00 0.00 0.00 38 669.1
20260905194951 37 225 4.8 17.7 0.00 0.00 0.00 39 719.5
20260905194450 37 194 1.6 17.7 0.00 0.00 0.00 39 629.8
20260905193949 37 140 6.4 17.7 0.00 0.00 0.00 38 588.6
20260905193448 37 124 6.4 17.7 0.00 0.00 0.00 39 611.5
20260905192441 37 171 0.0 17.7 0.00 0.00 0.00 41 670.1
20260905191940 37 171 0.0 17.7 0.00 0.00 0.00 39 685.7
20260905191440 37 242 1.6 17.7 0.00 0.00 0.00 40 683.3
20260905190939 37 239 1.6 17.7 0.00 0.00 0.00 41 502.3
20260905190438 37 76 0.0 17.7 0.00 0.00 0.00 41 407.3
20260905185937 36 42 1.6 17.7 0.00 0.00 0.00 42 427.9
20260905184921 36 131 3.2 17.7 0.00 0.00 0.00 40 536.5
20260905184420 37 113 3.2 17.7 0.00 0.00 0.00 41 550.6
20260905183404 37 135 6.4 17.7 0.00 0.00 0.00 42 537.2